Location: Tamazert
(32.6352°N, 5.2072°W)
Time: 23:52:52
(UTC+00:00)

Altair - Pass Details

Date: 05 October 2022
Orbit: 1501 x 1682 km, 47.2° (Epoch: 05 December)

Event Time Altitude Azimuth Distance (km) Brightness Sun altitude
Exits shadow 05:43:14 - 266° (W) 3,889 8.9 -8.0°
Reaches altitude 10° 05:43:34 10° 267° (W) 3,794 8.9 -8.0°
Maximum altitude 05:52:47 46° 338° (NNW) 2,092 8.1 -6.0°
Drops below altitude 10° 06:02:20 10° 50° (NE) 3,923 10.4 -4.0°
Sets 06:05:46 0° 57° (ENE) 4,925 11.1 -3.3°
